Weather History for KGCN - May, 2014

Change the Weather History Date:

Wednesday, May 28, 2014

  Actual Average Record
Temperature  
Mean Temperature 62 °F -  
Max Temperature 84 °F 75 °F 90 °F (2000)
Min Temperature 41 °F 33 °F 25 °F (2012)
Degree Days  
Heating Degree Days 2    
Growing Degree Days 12 (Base 50)    
Moisture  
Dew Point 25 °F    
Average Humidity 26    
Maximum Humidity 51    
Minimum Humidity 12    
Precipitation  
Precipitation 0.00 in - - ()
Sea Level Pressure  
Sea Level Pressure 29.88 in    
Wind  
Wind Speed 5 mph (SW)    
Max Wind Speed 22 mph    
Max Gust Speed 33 mph    
Visibility 10 miles    
Events      
Averages and records for this station are not official NWS values.
T = Trace of Precipitation, MM = Missing Value Source: NWS Daily Summary

Daily Weather History Graph

Daily Weather History Graph

Search for Another Location

Airport or City:

Trip Planner

Search our weather history database for the weather conditions in past years. The results will help you decide how hot, cold, wet, or windy it might be!

Date:

Astronomy

May. 28, 2014 Rise Set
Actual Time 5:14 AM MST 7:37 PM MST
Civil Twilight 4:45 AM MST 8:06 PM MST
Nautical Twilight 4:09 AM MST 8:43 PM MST
Astronomical Twilight 3:29 AM MST 9:22 PM MST
Moon 5:21 AM MST (5/28) 7:41 PM MST (5/28)
Length of Visible Light 15h 21m
Length of Day
14h 22m
New Moon, 0% of the Moon is Illuminated
May 28
New Moon
Jun 5
First Quarter
Jun 12
Full
Jun 19
Last Quarter
Jun 27
New

Hourly Weather History & Observations

Time (MST) Temp. Windchill Dew Point Humidity Pressure Visibility Wind Dir Wind Speed Gust Speed Precip Events Conditions
12:54 AM 46.9 °F - 25.0 °F 42% 29.96 in 10.0 mi Calm Calm - N/A   Clear
1:54 AM 46.0 °F - 25.0 °F 44% 29.95 in 10.0 mi Calm Calm - N/A   Clear
2:54 AM 43.0 °F - 25.0 °F 49% 29.95 in 10.0 mi Calm Calm - N/A   Clear
3:54 AM 41.0 °F - 24.1 °F 51% 29.96 in 10.0 mi Calm Calm - N/A   Clear
4:54 AM 42.1 °F 38.4 °F 25.0 °F 51% 29.94 in 10.0 mi ENE 5.8 mph - N/A   Clear
6:54 AM 55.0 °F - 30.0 °F 38% 29.92 in 10.0 mi Calm Calm - N/A   Clear
7:54 AM 71.1 °F - 30.9 °F 23% 29.90 in 10.0 mi Calm Calm - N/A   Clear
8:54 AM 73.9 °F - 28.9 °F 19% 29.90 in 10.0 mi Variable 3.5 mph - N/A   Clear
9:54 AM 78.1 °F - 28.9 °F 17% 29.89 in 10.0 mi SW 9.2 mph - N/A   Clear
11:54 AM 82.9 °F - 28.0 °F 14% 29.88 in 10.0 mi SSW 16.1 mph 27.6 mph N/A   Scattered Clouds
12:54 PM 82.0 °F - 27.0 °F 13% 29.89 in 10.0 mi SW 21.9 mph 32.2 mph N/A   Partly Cloudy
1:54 PM 84.0 °F - 25.0 °F 12% 29.87 in 10.0 mi WSW 17.3 mph 33.4 mph N/A   Clear
4:54 PM 78.1 °F - 25.0 °F 14% 29.87 in 10.0 mi SW 17.3 mph - N/A   Clear
5:54 PM 77.0 °F - 26.1 °F 15% 29.86 in 10.0 mi SW 12.7 mph 23.0 mph N/A   Clear
6:54 PM 75.0 °F - 23.0 °F 14% 29.83 in 10.0 mi SW 17.3 mph 24.2 mph N/A   Clear
7:54 PM 70.0 °F - 18.0 °F 14% 29.79 in 10.0 mi SW 8.1 mph - N/A   Clear
8:54 PM 64.9 °F - 19.9 °F 18% 29.81 in 10.0 mi Calm Calm - N/A   Clear
9:54 PM 57.0 °F - 21.0 °F 25% 29.83 in 10.0 mi Calm Calm - N/A   Clear
11:54 PM 55.0 °F - 24.1 °F 30% 29.81 in 10.0 mi Calm Calm - N/A   Clear